Simultaneous Nadir Overpasses (SNOs) Predictions

Prediction of SNOs between GOES-17 and NOAA-19 Satellite Orbit:

Table of predicted SNOs for the next 14.0 days since TLE Epoch: 4/22/2023
Index Date Time (GOES-17) GOES-17 Lat,Lon NOAA-19 Lat,Lon Distance(km) Time Diff (sec)
1 04/23/2023 03:40:21 0.02,-104.72 -0.62,-107.41 307.28 80
2 04/24/2023 03:25:41 0.01,-104.72 0.05,-104.48 26.69 80
3 04/25/2023 03:13:40 0.01,-104.72 0.71,-101.55 360.46 80
4 04/27/2023 15:33:45 -0.01,-104.76 0.36,-106.33 179.17 80
5 04/28/2023 15:24:24 -0.00,-104.76 -0.30,-103.40 154.79 80
6 04/29/2023 15:12:25 -0.00,-104.76 -1.02,-100.49 488.78 80
7 05/01/2023 03:44:41 0.00,-104.73 -0.82,-108.21 398.04 80
8 05/02/2023 03:32:41 0.00,-104.73 -0.13,-105.29 63.77 80
9 05/03/2023 03:18:00 0.00,-104.74 0.55,-102.37 270.54 80
10 05/05/2023 15:38:06 0.00,-104.78 0.53,-107.14 269.38 80
